[[{"header":{"parameterUnit":"m.s-1","parameterCategory":1,"la1":30.2991,"la2":30.254,"lo1":-89.0895,"lo2":-89.0444,"dy":0.0017,"dx":0.0017,"nx":28,"ny":28,"refTime":"2023-09-26T03:00:00:Z","depth":0,"parameterNumber":2,"parameterNumberName":"U-component_of_WINDS"},"data":[0,0,0,0,0,0,0,0,0,0,0,0,0,0,0,0,0,0,0,0,0,0,0,0,0,0,0,0,0,0,0,0,0,0,0,0,0,0,0,0,0,0,0,0,0,0,0,0,0,0,0,0,0,0,0,0,0,0,-4.721,-4.7211,0,-4.7229,-4.7229,-4.7229,-4.7121,-4.7118,-4.7115,-4.7112,-4.7134,-4.7137,-4.7141,0,0,0,0,0,0,0,0,0,0,0,0,0,-4.7088,-4.7091,-4.721,-4.7211,-4.7211,-4.7228,-4.7229,-4.7229,-4.7122,-4.7118,-4.7114,-4.7111,-4.7133,-4.7137,-4.7141,0,0,0,0,0,0,0,0,0,0,0,0,0,-4.7127,-4.7092,-4.721,-4.7159,-4.7155,-4.7228,-4.7229,-4.7229,-4.7123,-4.7118,-4.7113,-4.7109,-4.7131,-4.7136,-4.7141,-4.7266,0,0,-4.7157,-4.7159,0,0,0,0,0,0,0,0,-4.7125,-4.7132,-4.7167,-4.7163,-4.7158,-4.7168,-4.7193,-4.7241,-4.7124,-4.7135,-4.7112,-4.7107,-4.7149,-4.7153,-4.7166,-4.7267,-4.7267,-4.7158,-4.7161,-4.7163,-4.7164,0,0,0,0,0,0,0,-4.7122,-4.713,-4.7217,-4.7167,-4.7162,-4.7137,-4.7138,-4.7202,-4.7168,-4.7134,-4.7126,-4.7129,-4.7146,-4.7161,-4.7166,-4.7268,-4.7158,-4.7162,-4.7165,-4.7167,-4.7476,-4.748,0,0,0,0,0,0,-4.7126,-4.7129,-4.7217,-4.7218,-4.713,-4.7143,-4.7144,-4.7169,-4.7167,-4.7162,-4.7133,-4.7124,-4.7155,-4.716,-4.7166,-4.7314,-4.7163,-4.7168,-4.7171,-4.747,-4.7477,-4.7482,0,0,0,0,0,0,-4.7124,-4.7135,-4.7216,-4.7171,-4.718,-4.715,-4.718,-4.7172,-4.7187,-4.7166,-4.716,-4.7155,-4.7151,-4.7159,-4.7242,-4.7313,-4.717,-4.7175,-4.7464,-4.7472,-4.7479,-4.7609,0,0,0,0,0,0,-4.7121,-4.7135,-4.718,-4.7173,-4.7183,-4.7291,-4.7184,-4.7176,-4.7196,-4.7185,-4.7185,-4.7181,-4.7148,-4.7235,-4.7248,-4.7318,-4.7179,-4.7458,-4.7468,-4.7477,-4.7599,-4.7621,-4.7639,0,0,0,0,0,-4.7117,-4.7216,-4.7183,-4.7194,-4.7239,-4.7295,-4.7301,-4.726,-4.7202,-4.7249,-4.7236,-4.7181,-4.7303,-4.7245,-4.7258,-4.733,-4.7453,-4.7465,-4.7476,-4.759,-4.7616,-4.7639,0,0,0,0,0,0,-4.7231,-4.7214,-4.7177,-4.7276,-4.7288,-4.7277,-4.7334,-4.7289,-4.7318,-4.7306,-4.7256,-4.7257,-4.735,-4.7348,-4.7283,-4.7453,-4.7369,-4.7383,-4.745,-4.7476,-4.7495,-4.7495,-4.7183,0,0,0,0,0,-4.7268,-4.7315,-4.7297,-4.7386,-4.7394,-4.7364,-4.7387,-4.7355,-4.7365,-4.737,-4.7363,-4.7376,-4.7418,-4.7446,-4.7483,-4.7598,-4.7598,-4.7655,-4.7675,-4.7692,-4.7705,-4.777,-4.7796,-4.752,-4.752,-4.7519,0,0,-4.7345,-4.7341,-4.7373,-4.741,-4.7415,-4.7466,-4.7368,-4.7425,-4.7464,-4.7379,-4.7457,-4.7454,-4.7465,-4.7566,-4.761,-4.7567,-4.7782,-4.7706,-4.772,-4.7724,-4.7784,-4.7811,-4.7834,-4.7528,-4.7526,-4.7525,0,0,-4.7511,-4.7512,-4.7588,-4.7596,-4.7605,-4.7585,-4.7604,-4.76,-4.7594,-4.7672,-4.7611,-4.7656,-4.7728,-4.774,-4.7756,-4.7931,-4.7883,-4.7945,-4.8051,-4.8115,-4.8136,-4.8155,-4.8221,-4.8245,-4.7958,-4.7959,-4.7959,0,-4.7605,-4.7678,-4.7633,-4.7695,-4.7715,-4.764,-4.7719,-4.7729,-4.7751,-4.7767,-4.7719,-4.781,-4.7813,-4.7917,-4.796,-4.7974,-4.7997,-4.7945,-4.8137,-4.8155,-4.8172,-4.8234,-4.8259,-4.7966,-4.7965,-4.7964,-4.7964,0,-4.7795,-4.7848,-4.7908,-4.7932,-4.7958,-4.8028,-4.7995,-4.8028,-4.7995,-4.798,-4.8064,-4.8064,-4.8102,-4.8124,-4.8092,-4.8225,-4.8199,-4.8145,-4.8059,-4.8207,-4.8265,-4.8288,-4.7977,-4.7974,-4.7972,-4.797,0,0,-4.8033,-4.8032,-4.8056,-4.8067,-4.8074,-4.8114,-4.8183,-4.8219,-4.8249,-4.8268,-4.8326,-4.839,-4.8341,-4.8359,-4.8328,-4.8384,-4.8527,-4.8323,-4.8322,-4.8363,-4.8678,-4.872,-4.8748,-4.8495,-4.8499,-4.8502,-4.8678,0,-4.8197,-4.8313,-4.8276,-4.8394,-4.8443,-4.8376,-4.8436,-4.8448,-4.8437,-4.8479,-4.8468,-4.8515,-4.8445,-4.8456,-4.8508,-4.8498,-4.859,-4.8485,-4.8551,-4.8554,-4.8551,-4.8778,-4.8821,-4.8987,-4.87,-4.8703,-4.8706,0,-4.8404,-4.8431,-4.8555,-4.8557,-4.8576,-4.863,-4.8663,-4.8703,-4.8717,-4.8706,-4.8728,-4.8687,-4.8757,-4.8671,-4.8769,-4.8699,-4.8724,-4.8724,-4.8729,-4.8735,-4.864,-4.8792,-4.9038,-4.9064,-4.8741,-4.8738,-4.8735,0,-4.8568,-4.8636,-4.8719,-4.8731,-4.8734,-4.8775,-4.8779,-4.8788,-4.8813,-4.8843,-4.8859,-4.8897,-4.8918,-4.8948,-4.892,-4.8859,-4.9024,-4.8934,-4.9018,-4.902,-4.9056,-4.9055,-4.9313,-4.907,-4.907,-4.9069,-4.9069,0,-4.8756,-4.8835,-4.8793,-4.8845,-4.8933,-4.889,-4.8979,-4.8975,-4.8985,-4.9036,-4.898,-4.903,-4.8987,-4.9035,-4.9013,-4.9099,-4.9108,-4.9103,-4.9097,-4.9109,-4.911,-4.9126,-4.9114,-4.9076,-4.9074,-4.9073,-4.9072,0,-4.8954,-4.8929,-4.9016,-4.9013,-4.9015,-4.908,-4.9078,-4.9127,-4.9113,-4.918,-4.9193,-4.9172,-4.9225,-4.9199,-4.9254,-4.9239,-4.9352,-4.9329,-4.9347,-4.9342,-4.9428,-4.9421,-4.9707,-4.9743,-4.9475,-4.9478,-4.948,0,-4.9077,-4.9136,-4.914,-4.9171,-4.9178,-4.9227,-4.9254,-4.9216,-4.9246,-4.9269,-4.9316,-4.9364,-4.9401,-4.9489,-4.948,-4.9523,-4.9502,-4.9599,-4.9508,-4.952,-4.9506,-4.9504,-4.9511,-4.9618,-4.9621,-4.9623,-4.9625,0,-4.9298,-4.9283,-4.9323,-4.936,-4.9394,-4.9421,-4.9443,-4.9472,-4.9435,-4.9473,-4.9526,-4.9555,-4.9612,-4.9661,-4.97,-4.9705,-4.9661,-4.9654,-4.9676,-4.969,-4.97,-4.9699,-4.9399,-4.9648,-4.9646,-4.9644,-4.9643,-4.9642,-4.9463,-4.9514,-4.9526,-4.9574,-4.9587,-4.961,-4.9657,-4.965,-4.9694,-4.9737,-4.9713,-4.9776,-4.9792,-4.9839,-4.9852,-4.9902,-4.9864,-4.9895,-4.9904,-4.9913,-4.9925,-4.9691,-4.9909,-4.9908,-4.9908,-4.9907,-4.9906,0,-4.9683,-4.9689,-4.9733,-4.9767,-4.9805,-4.9759,-4.9783,-4.9819,-4.9875,-4.9894,-4.9931,-4.9995,-5.0044,-5.004,-5.0085,-5.0127,-5.0108,-5.0141,-5.0138,-5.0141,-4.9955,-4.9933,-5.0156,-5.0156,-5.0156,-5.0155,-5.0155,-5.0155,-4.9803,-4.9888,-4.9875,-4.9968,-4.9972,-5.0034,-5.0052,-5.0075,-5.0089,-5.0163,-5.0203,-5.02,-5.0211,-5.0257,-5.0301,-5.0299,-5.032,-5.036,-5.0351,-5.0178,-5.0153,-5.013,-5.0109,-5.0365,-5.0365,-5.0532,-5.0534,-5.0535]},{"header":{"parameterUnit":"m.s-1","parameterCategory":1,"la1":30.2991,"la2":30.254,"lo1":-89.0895,"lo2":-89.0444,"dy":0.0017,"dx":0.0017,"nx":28,"ny":28,"refTime":"2023-09-26T03:00:00:Z","depth":0,"parameterNumber":3,"parameterNumberName":"V-component_of_WINDS"},"data":[0,0,0,0,0,0,0,0,0,0,0,0,0,0,0,0,0,0,0,0,0,0,0,0,0,0,0,0,0,0,0,0,0,0,0,0,0,0,0,0,0,0,0,0,0,0,0,0,0,0,0,0,0,0,0,0,0,0,1.357,1.357,0,1.3571,1.3571,1.3571,1.3552,1.3552,1.3551,1.3551,1.3552,1.3552,1.3553,0,0,0,0,0,0,0,0,0,0,0,0,0,1.3549,1.355,1.357,1.357,1.357,1.3571,1.3571,1.3571,1.3552,1.3552,1.3551,1.3551,1.3551,1.3552,1.3553,0,0,0,0,0,0,0,0,0,0,0,0,0,1.3555,1.355,1.357,1.3561,1.356,1.3571,1.3571,1.3571,1.3553,1.3552,1.3551,1.355,1.3551,1.3552,1.3553,1.3573,0,0,1.3555,1.3555,0,0,0,0,0,0,0,0,1.3555,1.3556,1.3562,1.3561,1.356,1.3561,1.3564,1.3572,1.3553,1.3555,1.3551,1.355,1.3555,1.3556,1.3558,1.3573,1.3573,1.3555,1.3556,1.3556,1.3556,0,0,0,0,0,0,0,1.3554,1.3556,1.357,1.3562,1.3561,1.3556,1.3556,1.3566,1.356,1.3555,1.3554,1.3554,1.3555,1.3557,1.3558,1.3573,1.3555,1.3556,1.3556,1.3557,1.3604,1.3604,0,0,0,0,0,0,1.3555,1.3556,1.357,1.357,1.3556,1.3557,1.3557,1.3562,1.3559,1.3558,1.3555,1.3553,1.3556,1.3557,1.3557,1.3579,1.3556,1.3557,1.3557,1.3603,1.3604,1.3605,0,0,0,0,0,0,1.3555,1.3557,1.357,1.3563,1.3564,1.3558,1.3563,1.3562,1.3564,1.3559,1.3558,1.3558,1.3555,1.3556,1.3569,1.3579,1.3557,1.3558,1.3602,1.3603,1.3604,1.3625,0,0,0,0,0,0,1.3555,1.3557,1.3565,1.3563,1.3564,1.3582,1.3564,1.3563,1.3566,1.3564,1.3562,1.3561,1.3555,1.3568,1.357,1.358,1.3558,1.3601,1.3602,1.3604,1.3623,1.3626,1.3629,0,0,0,0,0,1.3554,1.3571,1.3565,1.3567,1.3574,1.3583,1.3584,1.3576,1.3567,1.3574,1.3571,1.3561,1.3578,1.3569,1.3571,1.3582,1.36,1.3602,1.3604,1.3622,1.3626,1.3629,0,0,0,0,0,0,1.3574,1.357,1.3564,1.3581,1.3582,1.358,1.3589,1.3581,1.3585,1.3583,1.3573,1.3573,1.3587,1.3586,1.3576,1.3601,1.3587,1.359,1.36,1.3604,1.3607,1.3606,1.3559,0,0,0,0,0,1.358,1.3588,1.3584,1.3599,1.36,1.3595,1.3598,1.3592,1.3593,1.3593,1.3591,1.3592,1.3597,1.3601,1.3606,1.3624,1.3622,1.3632,1.3635,1.3637,1.3639,1.3646,1.365,1.3611,1.361,1.361,0,0,1.3593,1.3592,1.3598,1.3603,1.3604,1.3611,1.3595,1.3604,1.3609,1.3595,1.3606,1.3605,1.3605,1.3619,1.3626,1.3619,1.365,1.364,1.3642,1.3642,1.3649,1.3652,1.3656,1.3612,1.3612,1.3611,0,0,1.362,1.3621,1.3633,1.3634,1.3634,1.363,1.3633,1.3632,1.363,1.3641,1.363,1.3637,1.3647,1.3647,1.3648,1.3675,1.3666,1.3677,1.3693,1.3701,1.3704,1.3706,1.3714,1.3717,1.3679,1.3679,1.3679,0,1.3636,1.3647,1.364,1.3649,1.3651,1.3639,1.3651,1.3652,1.3654,1.3655,1.3648,1.366,1.3659,1.3673,1.3679,1.3682,1.3684,1.3676,1.3704,1.3706,1.3709,1.3716,1.3719,1.368,1.368,1.368,1.368,0,1.3666,1.3673,1.3683,1.3685,1.3689,1.3699,1.3693,1.3697,1.3692,1.3688,1.3699,1.3699,1.3702,1.3706,1.37,1.3718,1.3714,1.3706,1.3692,1.3714,1.3721,1.3724,1.3682,1.3682,1.3681,1.3681,0,0,1.3704,1.3702,1.3706,1.3706,1.3706,1.3711,1.3721,1.3725,1.3728,1.373,1.3737,1.3746,1.3738,1.3739,1.3734,1.3741,1.376,1.3732,1.3731,1.3735,1.3778,1.3783,1.3787,1.3755,1.3756,1.3756,1.3778,0,1.3729,1.3744,1.3738,1.3754,1.3761,1.375,1.3758,1.3758,1.3756,1.376,1.3757,1.3763,1.3753,1.3754,1.376,1.3757,1.3769,1.3755,1.376,1.376,1.3758,1.3791,1.3796,1.3816,1.3781,1.3781,1.3781,0,1.3759,1.3762,1.3779,1.3777,1.3779,1.3786,1.3789,1.3794,1.3794,1.3792,1.3794,1.3787,1.3795,1.3783,1.3794,1.3785,1.3787,1.3786,1.3786,1.3785,1.3771,1.3788,1.3823,1.3825,1.3786,1.3786,1.3785,0,1.3783,1.3791,1.3802,1.3803,1.3801,1.3806,1.3806,1.3806,1.3808,1.3811,1.3812,1.3815,1.3817,1.382,1.3813,1.3805,1.3825,1.3812,1.3822,1.3822,1.3825,1.3824,1.3858,1.3829,1.3829,1.3829,1.3829,0,1.3809,1.3819,1.3812,1.3818,1.3829,1.3822,1.3833,1.3832,1.3831,1.3837,1.3828,1.3833,1.3826,1.383,1.3826,1.3835,1.3836,1.3833,1.3832,1.3833,1.3833,1.3833,1.383,1.383,1.383,1.383,1.3829,0,1.3837,1.3832,1.3843,1.3841,1.384,1.3848,1.3846,1.3852,1.3849,1.3856,1.3857,1.3852,1.3857,1.3851,1.3856,1.3853,1.3864,1.3861,1.3864,1.3862,1.3871,1.387,1.3905,1.3908,1.3879,1.3879,1.3879,0,1.3853,1.386,1.3859,1.3862,1.3862,1.3867,1.387,1.3863,1.3866,1.3867,1.3872,1.3876,1.3879,1.3887,1.3883,1.3886,1.3882,1.3894,1.3883,1.3883,1.388,1.3879,1.3879,1.3896,1.3896,1.3897,1.3897,0,1.3882,1.3879,1.3883,1.3886,1.3889,1.3891,1.3893,1.3896,1.3889,1.3893,1.3897,1.3899,1.3904,1.3907,1.391,1.3909,1.3901,1.3901,1.3903,1.3903,1.3904,1.3902,1.3868,1.39,1.3899,1.3899,1.3899,1.3899,1.3902,1.3908,1.3908,1.3912,1.3913,1.3914,1.3919,1.3916,1.392,1.3923,1.392,1.3925,1.3925,1.3927,1.3927,1.3931,1.3926,1.3929,1.3929,1.393,1.393,1.3905,1.3931,1.3931,1.3931,1.3931,1.3931,0,1.3929,1.3928,1.3933,1.3935,1.3938,1.3932,1.3933,1.3936,1.3941,1.3941,1.3944,1.3949,1.3953,1.395,1.3953,1.3956,1.3953,1.3957,1.3956,1.3955,1.3936,1.3933,1.396,1.396,1.396,1.396,1.396,1.396,1.3943,1.3952,1.3949,1.3958,1.3957,1.3962,1.3963,1.3964,1.3965,1.3971,1.3973,1.3972,1.3971,1.3973,1.3976,1.3975,1.3976,1.3981,1.3979,1.396,1.3957,1.3954,1.3951,1.3982,1.3982,1.3998,1.3998,1.3998]}]]